When you browse on this site, cookies collect data to enhance your experience and personalize the content and advertising you see.
Visit our Privacy Policy to learn more. By continuing to use the site, you agree to this use of cookies and data.
  • In Czech Republic
  • List of Countries
  • For 7 days
  • Water Temperature
  • Satellite Maps
  • Weather Map
  • Weather Widgets
  • user-avatar
    Login

    Hourly Weather Punakha

    Today, 19 February, Tuesday

    Time Temperature Precipitation Wind Pressure Humidity
    00:00 +5°C° 0 mm 1 mps 578 mmHg 85%
    01:00 +4°C° 0 mm 1 mps 578 mmHg 83%
    02:00 +4°C° 0 mm 1 mps 578 mmHg 81%
    03:00 +4°C° 0 mm 1 mps 578 mmHg 79%
    04:00 +4°C° 0 mm 1 mps 578 mmHg 75%
    05:00 +4°C° 0 mm 1 mps 579 mmHg 72%
    06:00 +3°C° 0 mm 1 mps 579 mmHg 68%
    07:00 +6°C° 0 mm 1 mps 580 mmHg 60%
    08:00 +8°C° 0 mm 1 mps 582 mmHg 51%
    09:00 +11°C° 0 mm 1 mps 583 mmHg 43%
    10:00 +12°C° 0 mm 2 mps 583 mmHg 42%
    11:00 +13°C° 0 mm 2 mps 583 mmHg 41%
    12:00 +13°C° 0 mm 3 mps 583 mmHg 41%
    13:00 +12°C° 0.1 mm 3 mps 583 mmHg 45%
    14:00 +12°C° 0.1 mm 3 mps 582 mmHg 49%
    15:00 +12°C° 0.1 mm 3 mps 581 mmHg 54%
    16:00 +10°C° 0.1 mm 2 mps 581 mmHg 64%
    17:00 +8°C° 0.1 mm 2 mps 580 mmHg 74%
    18:00 +8°C° 0.1 mm 1 mps 580 mmHg 84%
    19:00 +7°C° 0 mm 1 mps 580 mmHg 84%
    20:00 +7°C° 0 mm 1 mps 581 mmHg 83%
    21:00 +6°C° 0 mm 1 mps 582 mmHg 83%
    22:00 +6°C° 0 mm 1 mps 582 mmHg 79%
    23:00 +4°C° 0 mm 2 mps 582 mmHg 75%

    Tomorrow, 20 February, Wednesday

    Time Temperature Precipitation Wind Pressure Humidity
    00:00 +4°C° 0 mm 2 mps 582 mmHg 72%
    01:00 +4°C° 0 mm 2 mps 581 mmHg 64%
    02:00 +4°C° 0 mm 2 mps 581 mmHg 57%
    03:00 +3°C° 0 mm 2 mps 581 mmHg 50%
    04:00 +2°C° 0 mm 3 mps 581 mmHg 45%
    05:00 +2°C° 0 mm 3 mps 581 mmHg 40%
    06:00 +2°C° 0 mm 3 mps 581 mmHg 35%
    07:00 +6°C° 0 mm 2 mps 583 mmHg 32%
    08:00 +9°C° 0 mm 2 mps 585 mmHg 28%
    09:00 +13°C° 0 mm 1 mps 587 mmHg 25%
    10:00 +15°C° 0 mm 2 mps 587 mmHg 25%
    11:00 +17°C° 0 mm 2 mps 588 mmHg 24%
    12:00 +18°C° 0 mm 3 mps 588 mmHg 24%
    13:00 +18°C° 0 mm 3 mps 587 mmHg 28%
    14:00 +18°C° 0 mm 3 mps 587 mmHg 31%
    15:00 +18°C° 0 mm 4 mps 586 mmHg 35%
    16:00 +14°C° 0 mm 3 mps 585 mmHg 49%
    17:00 +12°C° 0 mm 2 mps 585 mmHg 63%
    18:00 +10°C° 0 mm 1 mps 584 mmHg 77%
    19:00 +8°C° 0 mm 2 mps 585 mmHg 69%
    20:00 +8°C° 0 mm 2 mps 586 mmHg 61%
    21:00 +7°C° 0 mm 3 mps 586 mmHg 53%
    22:00 +7°C° 0 mm 3 mps 586 mmHg 47%
    23:00 +7°C° 0 mm 3 mps 586 mmHg 42%

    Day after tomorrow, 21 February, Thursday

    Time Temperature Precipitation Wind Pressure Humidity
    00:00 +5°C° 0 mm 3 mps 586 mmHg 36%
    01:00 +5°C° 0 mm 3 mps 586 mmHg 34%
    02:00 +5°C° 0 mm 3 mps 585 mmHg 31%
    03:00 +5°C° 0 mm 3 mps 585 mmHg 29%
    04:00 +5°C° 0 mm 3 mps 585 mmHg 28%
    05:00 +5°C° 0 mm 3 mps 585 mmHg 27%
    06:00 +4°C° 0 mm 3 mps 585 mmHg 27%
    07:00 +9°C° 0 mm 2 mps 587 mmHg 24%
    08:00 +13°C° 0 mm 1 mps 588 mmHg 22%
    09:00 +16°C° 0 mm 1 mps 590 mmHg 19%
    10:00 +18°C° 0 mm 1 mps 590 mmHg 20%
    11:00 +19°C° 0 mm 2 mps 590 mmHg 21%
    12:00 +20°C° 0 mm 2 mps 590 mmHg 22%
    13:00 +20°C° 0 mm 2 mps 589 mmHg 26%
    14:00 +19°C° 0 mm 3 mps 589 mmHg 31%
    15:00 +19°C° 0 mm 3 mps 588 mmHg 35%
    16:00 +16°C° 0 mm 2 mps 586 mmHg 51%
    17:00 +13°C° 0 mm 1 mps 585 mmHg 66%
    18:00 +10°C° 0 mm 1 mps 584 mmHg 81%
    19:00 +10°C° 0 mm 1 mps 585 mmHg 76%
    20:00 +10°C° 0 mm 1 mps 585 mmHg 72%
    21:00 +8°C° 0 mm 2 mps 586 mmHg 67%
    22:00 +8°C° 0 mm 2 mps 585 mmHg 64%
    23:00 +8°C° 0 mm 2 mps 585 mmHg 60%

    22 February, Friday

    Time Temperature Precipitation Wind Pressure Humidity
    00:00 +8°C° 0 mm 2 mps 585 mmHg 56%
    01:00 +7°C° 0 mm 2 mps 584 mmHg 53%
    02:00 +7°C° 0 mm 2 mps 584 mmHg 50%
    03:00 +7°C° 0 mm 2 mps 584 mmHg 47%
    04:00 +7°C° 0 mm 2 mps 584 mmHg 45%
    05:00 +7°C° 0 mm 2 mps 583 mmHg 42%
    06:00 +7°C° 0 mm 2 mps 583 mmHg 39%
    07:00 +10°C° 0 mm 2 mps 585 mmHg 36%
    08:00 +14°C° 0 mm 1 mps 587 mmHg 32%
    09:00 +16°C° 0 mm 0 mps 588 mmHg 28%
    10:00 +19°C° 0 mm 1 mps 588 mmHg 28%
    11:00 +19°C° 0 mm 2 mps 588 mmHg 29%
    12:00 +20°C° 0 mm 2 mps 588 mmHg 29%
    13:00 +19°C° 0 mm 2 mps 587 mmHg 33%
    14:00 +19°C° 0 mm 3 mps 586 mmHg 38%
    15:00 +18°C° 0 mm 3 mps 585 mmHg 42%
    16:00 +16°C° 0.2 mm 2 mps 584 mmHg 56%
    17:00 +14°C° 0.2 mm 2 mps 583 mmHg 70%
    18:00 +11°C° 0.2 mm 1 mps 582 mmHg 84%
    19:00 +11°C° 0.1 mm 1 mps 583 mmHg 83%
    20:00 +10°C° 0.1 mm 1 mps 583 mmHg 83%
    21:00 +10°C° 0.1 mm 1 mps 584 mmHg 82%
    22:00 +9°C° 0 mm 1 mps 584 mmHg 78%
    23:00 +8°C° 0 mm 2 mps 583 mmHg 74%

    23 February, Saturday

    Time Temperature Precipitation Wind Pressure Humidity
    00:00 +7°C° 0 mm 2 mps 583 mmHg 70%
    01:00 +7°C° 0 mm 2 mps 583 mmHg 67%
    02:00 +7°C° 0 mm 2 mps 582 mmHg 63%
    03:00 +6°C° 0 mm 2 mps 582 mmHg 60%
    04:00 +6°C° 0 mm 2 mps 582 mmHg 57%
    05:00 +6°C° 0 mm 2 mps 582 mmHg 54%
    06:00 +5°C° 0 mm 2 mps 582 mmHg 51%
    07:00 +8°C° 0 mm 2 mps 583 mmHg 46%
    08:00 +12°C° 0 mm 1 mps 585 mmHg 41%
    09:00 +15°C° 0 mm 1 mps 586 mmHg 36%
    10:00 +16°C° 0 mm 1 mps 586 mmHg 35%
    11:00 +17°C° 0 mm 2 mps 586 mmHg 34%
    12:00 +18°C° 0 mm 2 mps 586 mmHg 33%
    13:00 +17°C° 0 mm 2 mps 585 mmHg 36%
    14:00 +17°C° 0 mm 2 mps 584 mmHg 38%
    15:00 +17°C° 0 mm 3 mps 583 mmHg 41%
    16:00 +15°C° 0.1 mm 2 mps 583 mmHg 53%
    17:00 +12°C° 0.1 mm 2 mps 582 mmHg 66%
    18:00 +10°C° 0.1 mm 1 mps 581 mmHg 78%
    19:00 +10°C° 0 mm 1 mps 582 mmHg 78%
    20:00 +9°C° 0 mm 1 mps 582 mmHg 78%
    21:00 +8°C° 0 mm 1 mps 583 mmHg 78%
    22:00 +8°C° 0 mm 1 mps 582 mmHg 74%
    23:00 +8°C° 0 mm 1 mps 582 mmHg 71%

    24 February, Sunday

    Time Temperature Precipitation Wind Pressure Humidity
    00:00 +6°C° 0 mm 2 mps 582 mmHg 67%
    01:00 +6°C° 0 mm 2 mps 582 mmHg 65%
    02:00 +6°C° 0 mm 2 mps 581 mmHg 63%
    03:00 +6°C° 0 mm 2 mps 581 mmHg 61%
    04:00 +5°C° 0 mm 2 mps 581 mmHg 60%
    05:00 +5°C° 0 mm 2 mps 581 mmHg 59%
    06:00 +5°C° 0 mm 2 mps 581 mmHg 57%
    07:00 +7°C° 0 mm 2 mps 582 mmHg 50%
    08:00 +11°C° 0 mm 1 mps 584 mmHg 43%
    09:00 +13°C° 0 mm 1 mps 585 mmHg 36%
    10:00 +15°C° 0 mm 1 mps 585 mmHg 33%
    11:00 +16°C° 0 mm 2 mps 585 mmHg 31%
    12:00 +17°C° 0 mm 2 mps 585 mmHg 28%
    13:00 +17°C° 0 mm 2 mps 584 mmHg 30%
    14:00 +16°C° 0 mm 3 mps 583 mmHg 32%
    15:00 +16°C° 0 mm 3 mps 583 mmHg 33%
    16:00 +14°C° 0.1 mm 2 mps 582 mmHg 45%
    17:00 +12°C° 0.1 mm 2 mps 581 mmHg 57%
    18:00 +9°C° 0.1 mm 2 mps 580 mmHg 69%
    19:00 +8°C° 0 mm 2 mps 580 mmHg 70%
    20:00 +7°C° 0 mm 2 mps 580 mmHg 72%
    21:00 +6°C° 0 mm 2 mps 580 mmHg 74%
    22:00 +6°C° 0 mm 2 mps 580 mmHg 70%
    23:00 +6°C° 0 mm 2 mps 580 mmHg 67%
    Show more